Tracking 29892 objects as of 21-Nov-2024
HD Live streaming from Space Station
objects crossing your sky now

STARLINK-32390

Track STARLINK-32390 now!
10-day predictions
STARLINK-32390 is classified as:


NORAD ID: 61630
Int'l Code: 2024-191K
Perigee: 421.5 km
Apogee: 422.9 km
Inclination: 43.0 °
Period: 92.9 minutes
Semi major axis: 6793 km
RCS: Unknown
Launch date: October 23, 2024
Source: United States (US)
Launch site: AIR FORCE EASTERN TEST RANGE (AFETR)
Your satellite tracking list
Your tracking list is empty




NASA's NSSDC Master Catalog

Two Line Element Set (TLE):
1 61630U 24191K   24326.03093998  .00000430  00000-0  13154-4 0  9996
2 61630  43.0021 327.0307 0001080 271.7406  88.3331 15.50573310  5546
Source of the keplerian elements: AFSPC